Houston, TX

2:55 AM CST on December 04, 2016 (GMT -0600)
Houston / Dunn Helistop

Weather History for KMCJ - November, 2012

Change the Weather History Date:

Friday, November 16, 2012

  Actual Average (KHOU) Record (KHOU)
Temperature  
Mean Temperature 58 °F 62 °F  
Max Temperature 68 °F 72 °F 85 °F (1948)
Min Temperature 48 °F 52 °F 25 °F (1970)
Degree Days  
Heating Degree Days 7 5  
Month to date heating degree days 59  
Since 1 July heating degree days 89  
Growing Degree Days 8 (Base 50)    
Moisture  
Dew Point 34 °F    
Average Humidity 44    
Maximum Humidity 66    
Minimum Humidity 26    
Precipitation  
Precipitation 0.00 in 0.14 in 3.03 in (1948)
Month to date precipitation 2.39  
Year to date precipitation 44.08  
Sea Level Pressure  
Sea Level Pressure 30.28 in    
Wind  
Wind Speed 10 mph (NE)    
Max Wind Speed 15 mph    
Max Gust Speed 20 mph    
Visibility 10 miles    
Events      
T = Trace of Precipitation, MM = Missing Value Source: NWS Daily Summary

Daily Weather History Graph

Daily Weather History Graph

Search for Another Location

Airport or City:

Trip Planner

Search our weather history database for the weather conditions in past years. The results will help you decide how hot, cold, wet, or windy it might be!

Date:

Astronomy

Nov. 16, 2012 Rise Set
Actual Time 6:47 AM CST 5:25 PM CST
Civil Twilight 6:22 AM CST 5:50 PM CST
Nautical Twilight 5:53 AM CST 6:19 PM CST
Astronomical Twilight 5:24 AM CST 6:47 PM CST
Moon 9:39 AM CST (11/16) 8:28 PM CST (11/16)
Length of Visible Light 11h 28m
Length of Day
10h 37m
Waxing Crescent, 12% of the Moon is Illuminated
Nov 16
Waxing Crescent
Nov 20
First Quarter
Nov 28
Full
Dec 6
Last Quarter
Dec 13
New

Hourly Weather History & Observations

Time (CST) Temp. Dew Point Humidity Pressure Visibility Wind Dir Wind Speed Gust Speed Precip Events Conditions
12:15 AM 55.4 °F 32.0 °F 41% 30.27 in 10.0 mi ENE 10.4 mph - N/A   Overcast
12:35 AM 55.4 °F 32.0 °F 41% 30.27 in 10.0 mi ENE 8.1 mph - N/A   Overcast
12:55 AM 55.4 °F 30.2 °F 38% 30.27 in 10.0 mi ENE 11.5 mph - N/A   Overcast
1:15 AM 55.4 °F 32.0 °F 41% 30.27 in 10.0 mi ENE 11.5 mph - N/A   Overcast
1:35 AM 55.4 °F 32.0 °F 41% 30.27 in 10.0 mi ENE 11.5 mph - N/A   Overcast
1:55 AM 53.6 °F 32.0 °F 44% 30.26 in 10.0 mi ENE 11.5 mph - N/A   Overcast
2:15 AM 53.6 °F 32.0 °F 44% 30.26 in 10.0 mi NE 8.1 mph - N/A   Overcast
2:35 AM 53.6 °F 32.0 °F 44% 30.26 in 10.0 mi ENE 10.4 mph - N/A   Mostly Cloudy
2:55 AM 51.8 °F 32.0 °F 47% 30.26 in 10.0 mi ENE 11.5 mph - N/A   Mostly Cloudy
3:15 AM 51.8 °F 32.0 °F 47% 30.26 in 10.0 mi ENE 10.4 mph - N/A   Scattered Clouds
3:35 AM 50.0 °F 32.0 °F 50% 30.26 in 10.0 mi NE 10.4 mph - N/A   Scattered Clouds
3:55 AM 50.0 °F 32.0 °F 50% 30.25 in 10.0 mi ENE 11.5 mph - N/A   Partly Cloudy
4:15 AM 50.0 °F 33.8 °F 54% 30.25 in 10.0 mi NE 9.2 mph - N/A   Clear
4:35 AM 48.2 °F 33.8 °F 58% 30.25 in 10.0 mi ENE 10.4 mph - N/A   Clear
4:55 AM 48.2 °F 33.8 °F 58% 30.25 in 10.0 mi ENE 8.1 mph - N/A   Clear
5:15 AM 48.2 °F 33.8 °F 58% 30.25 in 10.0 mi ENE 9.2 mph - N/A   Clear
5:35 AM 48.2 °F 33.8 °F 58% 30.26 in 10.0 mi NE 5.8 mph - N/A   Clear
5:55 AM 48.2 °F 35.6 °F 62% 30.27 in 10.0 mi NE 8.1 mph - N/A   Clear
6:15 AM 48.2 °F 35.6 °F 62% 30.27 in 10.0 mi ENE 8.1 mph - N/A   Clear
6:35 AM 48.2 °F 35.6 °F 62% 30.29 in 10.0 mi NE 5.8 mph - N/A   Clear
6:55 AM 48.2 °F 35.6 °F 62% 30.29 in 10.0 mi NE 6.9 mph - N/A   Clear
7:15 AM 48.2 °F 37.4 °F 66% 30.29 in 10.0 mi NE 6.9 mph - N/A   Clear
7:35 AM 48.2 °F 37.4 °F 66% 30.30 in 10.0 mi ENE 5.8 mph - N/A   Clear
7:55 AM 48.2 °F 37.4 °F 66% 30.31 in 10.0 mi ENE 8.1 mph - N/A   Clear
8:15 AM 50.0 °F 37.4 °F 62% 30.32 in 10.0 mi NE 9.2 mph - N/A   Clear
8:35 AM 50.0 °F 37.4 °F 62% 30.32 in 10.0 mi ENE 12.7 mph - N/A   Clear
8:55 AM 50.0 °F 37.4 °F 62% 30.32 in 10.0 mi ENE 12.7 mph 16.1 mph N/A   Clear
9:15 AM 53.6 °F 39.2 °F 58% 30.33 in 9.0 mi ENE 9.2 mph 16.1 mph N/A   Clear
9:35 AM 53.6 °F 39.2 °F 58% 30.33 in 10.0 mi ENE 15.0 mph - N/A   Clear
9:55 AM 55.4 °F 39.2 °F 54% 30.33 in 10.0 mi ENE 15.0 mph 19.6 mph N/A   Clear
10:15 AM 55.4 °F 37.4 °F 51% 30.33 in 10.0 mi ENE 15.0 mph - N/A   Clear
10:35 AM 57.2 °F 37.4 °F 48% 30.33 in 10.0 mi NE 10.4 mph - N/A   Clear
10:55 AM 59.0 °F 37.4 °F 45% 30.32 in 10.0 mi East 11.5 mph - N/A   Clear
11:15 AM 59.0 °F 37.4 °F 45% 30.32 in 10.0 mi ENE 6.9 mph 17.3 mph N/A   Clear
11:35 AM 59.0 °F 35.6 °F 42% 30.30 in 10.0 mi NE 11.5 mph - N/A   Clear
11:55 AM 62.6 °F 33.8 °F 34% 30.29 in 10.0 mi ENE 10.4 mph - N/A   Clear
12:15 PM 62.6 °F 33.8 °F 34% 30.29 in 10.0 mi ENE 11.5 mph - N/A   Clear
12:35 PM 62.6 °F 33.8 °F 34% 30.27 in 10.0 mi ENE 10.4 mph - N/A   Clear
12:55 PM 64.4 °F 33.8 °F 32% 30.26 in 10.0 mi ENE 10.4 mph - N/A   Clear
1:15 PM 64.4 °F 32.0 °F 30% 30.26 in 10.0 mi NNE 8.1 mph - N/A   Clear
1:35 PM 66.2 °F 32.0 °F 28% 30.25 in 10.0 mi NE 13.8 mph - N/A   Clear
1:55 PM 66.2 °F 32.0 °F 28% 30.24 in 10.0 mi ENE 9.2 mph - N/A   Clear
2:15 PM 66.2 °F 32.0 °F 28% 30.24 in 10.0 mi East 3.5 mph - N/A   Clear
2:35 PM 68.0 °F 32.0 °F 26% 30.23 in 10.0 mi East 6.9 mph - N/A   Clear
2:55 PM 68.0 °F 32.0 °F 26% 30.23 in 10.0 mi East 6.9 mph - N/A   Clear
3:15 PM 68.0 °F 32.0 °F 26% 30.23 in 10.0 mi NE 9.2 mph - N/A   Clear
3:35 PM 66.2 °F 32.0 °F 28% 30.23 in 10.0 mi East 10.4 mph - N/A   Clear
3:55 PM 66.2 °F 32.0 °F 28% 30.23 in 10.0 mi NE 8.1 mph - N/A   Clear
4:15 PM 66.2 °F 32.0 °F 28% 30.23 in 10.0 mi NE 6.9 mph - N/A   Clear
4:35 PM 66.2 °F 32.0 °F 28% 30.24 in 10.0 mi ENE 4.6 mph - N/A   Clear
4:55 PM 64.4 °F 32.0 °F 30% 30.24 in 10.0 mi NE 9.2 mph - N/A   Clear
5:15 PM 64.4 °F 32.0 °F 30% 30.24 in 10.0 mi ENE 10.4 mph 18.4 mph N/A   Clear
5:35 PM 62.6 °F 32.0 °F 32% 30.24 in 10.0 mi ENE 6.9 mph - N/A   Clear
5:55 PM 62.6 °F 32.0 °F 32% 30.25 in 10.0 mi NNE 5.8 mph - N/A   Clear
6:15 PM 62.6 °F 32.0 °F 32% 30.25 in 10.0 mi NNE 9.2 mph - N/A   Clear
6:35 PM 60.8 °F 32.0 °F 34% 30.26 in 10.0 mi NNE 10.4 mph - N/A   Clear
6:55 PM 59.0 °F 33.8 °F 39% 30.27 in 10.0 mi NNE 10.4 mph - N/A   Clear
7:15 PM 59.0 °F 33.8 °F 39% 30.27 in 10.0 mi NNE 10.4 mph - N/A   Clear
7:35 PM 59.0 °F 32.0 °F 36% 30.27 in 10.0 mi NNE 10.4 mph - N/A   Clear
7:55 PM 59.0 °F 32.0 °F 36% 30.28 in 10.0 mi NNE 10.4 mph - N/A   Clear
8:15 PM 59.0 °F 32.0 °F 36% 30.28 in 10.0 mi NNE 11.5 mph - N/A   Clear
8:35 PM 57.2 °F 32.0 °F 38% 30.29 in 10.0 mi NE 8.1 mph - N/A   Clear
8:55 PM 59.0 °F 32.0 °F 36% 30.29 in 10.0 mi NE 10.4 mph 17.3 mph N/A   Clear
9:15 PM 57.2 °F 33.8 °F 41% 30.29 in 10.0 mi NE 12.7 mph - N/A   Clear
9:55 PM 57.2 °F 35.6 °F 44% 30.30 in 10.0 mi ENE 10.4 mph - N/A   Clear
10:15 PM 55.4 °F 35.6 °F 47% 30.30 in 10.0 mi ENE 11.5 mph 16.1 mph N/A   Clear
10:35 PM 55.4 °F 35.6 °F 47% 30.30 in 10.0 mi ENE 11.5 mph 17.3 mph N/A   Clear
10:55 PM 55.4 °F 35.6 °F 47% 30.30 in 10.0 mi ENE 9.2 mph 19.6 mph N/A   Clear
11:15 PM 55.4 °F 35.6 °F 47% 30.30 in 10.0 mi ENE 9.2 mph - N/A   Clear
11:35 PM 53.6 °F 35.6 °F 51% 30.31 in 10.0 mi ENE 8.1 mph - N/A   Clear
11:55 PM 53.6 °F 35.6 °F 51% 30.31 in 9.0 mi ENE 8.1 mph - N/A   Clear